GW7344 Weather Reports


Display with metric or nautical units.
time (UTC)temp
F
wind
direction
speed
MPH
gust
MPH
rain 1hr
in
rain 24hr
in
rain mn
in
humidity
%
barometer
mb
20260507180906 69 360 0.0 0.0 0.00 0.01 0.00 38 1005.7
20260507180354 69 235 1.0 4.0 0.00 0.01 0.00 36 1005.7
20260507175849 69 225 1.0 4.0 0.00 0.01 0.00 31 1005.7
20260507175337 70 332 3.0 5.0 0.00 0.01 0.00 35 1006.0
20260507174837 69 337 5.0 7.0 0.00 0.01 0.00 34 1005.7
20260507174331 69 40 1.0 2.0 0.00 0.01 0.00 43 1005.7
20260507173828 69 356 4.0 5.0 0.00 0.01 0.00 39 1006.0
20260507173324 68 360 1.0 5.0 0.00 0.01 0.00 36 1006.0
20260507172820 68 10 1.0 5.0 0.00 0.01 0.00 38 1006.0
20260507172317 68 278 1.0 4.0 0.00 0.01 0.00 39 100.5
20260507171755 67 192 0.0 1.0 0.00 0.01 0.00 41 1006.4
20260507171239 67 315 2.0 8.0 0.01 0.01 0.00 37 1006.4
20260507170729 66 328 1.0 4.0 0.01 0.01 0.00 41 1006.7
20260507170225 66 335 3.0 4.0 0.01 0.01 0.00 39 1006.7
20260507165723 66 292 0.0 2.0 0.01 0.01 0.00 43 1007.1
20260507165213 66 28 1.0 2.0 0.01 0.01 0.00 38 1007.1
20260507164702 66 270 0.0 5.0 0.01 0.01 0.00 45 1007.1
20260507164201 65 325 2.0 4.0 0.01 0.01 0.00 42 1007.1
20260507163654 64 297 1.0 5.0 0.01 0.01 0.00 42 1007.4
20260507163136 64 314 1.0 2.0 0.01 0.01 0.00 46 1007.4
20260507162636 63 158 0.0 2.0 0.01 0.01 0.00 44 1007.4
20260507162132 62 21 2.0 2.0 0.01 0.01 0.00 43 1007.4
20260507161625 62 42 1.0 2.0 0.00 0.00 0.00 43 1007.4
20260507161121 62 322 3.0 4.0 0.00 0.00 0.00 43 1007.4
20260507160610 61 166 1.0 2.0 0.00 0.00 0.00 44 1007.7
20260507160107 60 180 0.0 1.0 0.00 0.00 0.00 41 1007.4
20260507155606 60 179 2.0 2.0 0.00 0.00 0.00 42 1007.7
20260507155102 59 180 1.0 4.0 0.00 0.00 0.00 43 1007.7
20260507154543 59 180 1.0 4.0 0.00 0.00 0.00 43 1007.7
20260507154031 58 185 2.0 2.0 0.00 0.00 0.00 44 1007.7
20260507153525 58 142 1.0 4.0 0.00 0.00 0.00 45 1007.7
20260507153025 58 124 1.0 4.0 0.00 0.00 0.00 41 1007.7
20260507152514 58 147 3.0 8.0 0.00 0.00 0.00 41 1007.7
20260507152010 58 140 1.0 7.0 0.00 0.00 0.00 44 1008.1
20260507151508 58 210 1.0 4.0 0.00 0.00 0.00 47 1008.1
20260507151007 58 130 2.0 5.0 0.00 0.00 0.00 42 1008.1
20260507150505 58 169 1.0 1.0 0.00 0.00 0.00 47 1008.1
20260507150002 58 135 1.0 2.0 0.00 0.00 0.00 47 1008.1
20260507145459 57 124 1.0 5.0 0.00 0.00 0.00 50 1008.1
20260507144958 57 225 0.0 2.0 0.00 0.00 0.00 49 1008.4
20260507144445 56 180 1.0 2.0 0.00 0.00 0.00 50 1008.4
20260507143941 56 180 1.0 2.0 0.00 0.00 0.00 51 1008.4
20260507143434 56 180 0.0 2.0 0.00 0.00 0.00 52 1008.4
20260507142915 55 180 1.0 4.0 0.00 0.00 0.00 48 1008.4
20260507142408 55 180 0.0 2.0 0.00 0.00 0.00 52 1008.4
20260507141907 55 188 1.0 2.0 0.00 0.00 0.00 50 1008.4
20260507141403 55 180 0.0 2.0 0.00 0.00 0.00 54 1008.4
20260507140855 54 166 2.0 4.0 0.00 0.00 0.00 51 1008.4
20260507140348 54 180 1.0 2.0 0.00 0.00 0.00 52 1008.8
20260507135831 54 135 0.0 2.0 0.00 0.00 0.00 55 1008.8
20260507135327 54 174 1.0 2.0 0.00 0.00 0.00 56 1008.8
20260507134819 53 178 2.0 4.0 0.00 0.00 0.00 53 1008.8
20260507134256 53 152 1.0 2.0 0.00 0.00 0.00 52 1008.8
20260507133753 53 202 0.0 1.0 0.00 0.00 0.00 54 1009.1
20260507133243 53 180 1.0 2.0 0.00 0.00 0.00 54 1009.1
20260507132740 53 180 1.0 2.0 0.00 0.00 0.00 53 1009.1
20260507132230 53 180 0.0 2.0 0.00 0.00 0.00 53 1009.1
20260507131709 53 134 1.0 4.0 0.00 0.00 0.00 52 1008.8
20260507131205 53 132 0.0 1.0 0.00 0.00 0.00 54 1008.8
20260507130653 53 180 0.0 2.0 0.00 0.00 0.00 58 1009.1
20260507130150 53 180 0.0 2.0 0.00 0.00 0.00 56 1008.8
20260507125649 53 135 0.0 1.0 0.00 0.00 0.00 57 1008.8
20260507125145 53 180 0.0 2.0 0.00 0.00 0.00 56 1008.8
20260507124644 53 188 2.0 4.0 0.00 0.00 0.00 54 1008.8
20260507124137 53 147 1.0 2.0 0.00 0.00 0.00 55 1008.8
20260507123632 53 180 3.0 5.0 0.00 0.00 0.00 56 1008.8
20260507123128 53 180 1.0 2.0 0.00 0.00 0.00 57 1008.8
20260507122622 53 180 0.0 1.0 0.00 0.00 0.00 56 1008.8
20260507122121 53 135 0.0 1.0 0.00 0.00 0.00 58 1009.1
20260507121618 53 180 0.0 1.0 0.00 0.00 0.00 56 1008.8
20260507121055 53 225 0.0 2.0 0.00 0.00 0.00 57 1008.8
20260507120550 53 180 0.0 5.0 0.00 0.00 0.00 56 1008.8
20260507120039 53 180 0.0 2.0 0.00 0.00 0.00 61 1008.8
20260507115528 54 146 1.0 2.0 0.00 0.00 0.00 61 1008.8
20260507115022 54 135 0.0 0.0 0.00 0.00 0.00 62 1008.8
20260507114521 54 225 1.0 5.0 0.00 0.00 0.00 60 1008.8
20260507114017 54 135 1.0 2.0 0.00 0.00 0.00 60 1008.4
20260507113512 54 174 1.0 5.0 0.00 0.00 0.00 61 1008.4
20260507113000 54 144 3.0 7.0 0.00 0.00 0.00 61 1008.4
20260507112458 54 164 1.0 1.0 0.00 0.00 0.00 64 1008.1
20260507111956 54 135 1.0 4.0 0.00 0.00 0.00 67 1008.1
20260507111455 54 156 0.0 2.0 0.00 0.00 0.00 68 1008.1
20260507110947 54 146 1.0 4.0 0.00 0.00 0.00 70 1008.1
20260507110445 54 136 1.0 7.0 0.00 0.00 0.00 70 1008.1
20260507105938 54 135 0.0 2.0 0.00 0.00 0.00 72 1008.1
20260507105437 54 180 1.0 1.0 0.00 0.00 0.00 72 1008.1
20260507104934 54 180 0.0 1.0 0.00 0.00 0.00 72 1008.1
20260507104430 54 146 1.0 2.0 0.00 0.00 0.00 72 1008.1
20260507103916 54 180 0.0 1.0 0.00 0.00 0.00 73 1008.1
20260507103413 54 168 1.0 2.0 0.00 0.00 0.00 71 1007.7
20260507102911 54 135 0.0 1.0 0.00 0.00 0.00 73 1007.7
20260507102401 54 180 0.0 1.0 0.00 0.00 0.00 73 1007.7
20260507101847 54 180 0.0 1.0 0.00 0.00 0.00 75 1007.7
20260507101343 54 135 0.0 1.0 0.00 0.00 0.00 74 1007.7
20260507100837 54 180 0.0 2.0 0.00 0.00 0.00 75 1007.7
20260507100324 54 180 0.0 1.0 0.00 0.00 0.00 74 1007.4
20260507095813 54 180 0.0 1.0 0.00 0.00 0.00 76 1007.7
20260507095258 54 180 0.0 0.0 0.00 0.00 0.00 77 1007.7
20260507094756 54 180 0.0 0.0 0.00 0.00 0.00 77 1007.4
20260507094255 54 180 0.0 0.0 0.00 0.00 0.00 77 1007.4
20260507093752 54 180 0.0 0.0 0.00 0.00 0.00 75 1007.4
20260507093241 54 180 0.0 0.0 0.00 0.00 0.00 75 1007.4
20260507092740 54 135 0.0 1.0 0.00 0.00 0.00 73 1007.4
20260507092230 54 225 1.0 2.0 0.00 0.00 0.00 72 1007.4
20260507091717 54 180 0.0 1.0 0.00 0.00 0.00 74 1007.4
20260507091214 54 180 0.0 1.0 0.00 0.00 0.00 72 1007.1
20260507090703 54 184 3.0 5.0 0.00 0.00 0.00 70 1007.1
20260507090156 54 135 0.0 4.0 0.00 0.00 0.00 73 1007.1
20260507085752 54 180 0.0 2.0 0.00 0.00 0.00 74 1007.1
20260507085247 54 180 1.0 5.0 0.00 0.00 0.00 75 1007.4
20260507084742 54 180 0.0 0.0 0.00 0.51 0.00 79 1007.1
20260507084235 54 180 0.0 1.0 0.00 0.51 0.00 78 1007.4
20260507083729 54 180 0.0 1.0 0.00 0.51 0.00 78 1007.4
20260507083225 54 180 0.0 1.0 0.00 0.51 0.00 77 1007.4
20260507082720 54 180 0.0 2.0 0.00 0.51 0.00 77 1007.1
20260507082215 54 180 0.0 0.0 0.00 0.51 0.00 80 1007.4
20260507081710 54 180 0.0 1.0 0.00 0.51 0.00 79 1007.4
20260507081207 54 180 0.0 1.0 0.00 0.51 0.00 78 1007.1
20260507080705 54 90 0.0 0.0 0.00 0.51 0.00 80 1007.1
20260507080158 54 89 0.0 0.0 0.00 0.51 0.00 80 1007.1
20260507075651 55 89 0.0 0.0 0.00 0.51 0.00 80 1007.1
20260507075118 55 89 0.0 0.0 0.00 0.51 0.00 80 1006.7
20260507074604 54 89 0.0 0.0 0.00 0.51 0.00 80 1006.4
20260507074100 54 90 0.0 2.0 0.00 0.51 0.00 77 1006.4
20260507073549 55 135 0.0 2.0 0.00 0.51 0.00 78 1006.4
20260507073043 54 180 1.0 2.0 0.00 0.51 0.00 77 1006.7
20260507072523 54 180 0.0 2.0 0.00 0.51 0.00 79 1006.7
20260507072015 55 180 0.0 1.0 0.00 0.51 0.00 78 1006.4
20260507071501 55 180 0.0 1.0 0.00 0.51 0.00 79 1006.4
20260507070954 54 225 0.0 2.0 0.00 0.51 0.00 78 1006.7
20260507070437 54 111 0.0 4.0 0.01 0.51 0.00 78 1006.7
20260507065927 54 180 0.0 2.0 0.01 0.51 0.00 78 1006.7
20260507065413 55 180 0.0 4.0 0.01 0.51 0.00 78 1006.7
20260507064908 54 180 2.0 4.0 0.01 0.51 0.00 77 1006.7
20260507064407 55 184 2.0 5.0 0.01 0.51 0.00 78 1006.4
20260507063856 55 135 0.0 8.0 0.02 0.51 0.00 79 1006.7
20260507063349 55 182 2.0 5.0 0.03 0.51 0.00 78 1006.7
20260507062837 55 180 1.0 4.0 0.05 0.51 0.00 78 1006.7
20260507062328 55 141 2.0 4.0 0.05 0.51 0.00 80 1006.7
20260507061827 55 180 1.0 2.0 0.05 0.51 0.00 81 1006.7
20260507061312 55 180 1.0 4.0 0.05 0.51 0.00 82 1007.1
20260507060804 55 180 0.0 1.0 0.05 0.50 0.00 83 1007.1
20260507060304 55 135 0.0 2.0 0.07 0.50 0.00 82 1006.7
20260507055743 55 151 1.0 1.0 0.08 0.50 0.00 82 1006.4
20260507055241 55 144 0.0 2.0 0.12 0.50 0.00 82 1006.4
20260507054728 56 191 2.0 4.0 0.12 0.50 0.00 83 1006.4
20260507054223 56 135 0.0 2.0 0.13 0.49 0.00 83 1006.7
20260507053719 56 225 1.0 4.0 0.14 0.48 0.00 83 1006.7
20260507053216 56 197 4.0 4.0 0.14 0.48 0.00 81 1006.7
20260507052711 56 184 2.0 4.0 0.13 0.46 0.00 82 1006.7
20260507052205 56 157 0.0 2.0 0.14 0.46 0.00 84 1006.7
20260507051702 56 135 0.0 2.0 0.15 0.46 0.00 84 1006.7
20260507051159 57 270 0.0 0.0 0.14 0.45 0.00 84 1006.7
20260507050657 57 135 0.0 2.0 0.17 0.45 0.00 84 1006.7
20260507050155 57 135 0.0 1.0 0.14 0.41 0.00 84 1006.4
20260507045642 57 180 1.0 4.0 0.13 0.40 0.00 83 1006.0
20260507045130 57 166 4.0 5.0 0.11 0.38 0.00 83 1006.0
20260507044628 57 208 1.0 2.0 0.09 0.37 0.00 82 1006.7
20260507044111 57 219 2.0 4.0 0.08 0.36 0.00 83 1006.7
20260507043558 57 180 1.0 2.0 0.06 0.34 0.00 83 1007.1
20260507043049 58 134 1.0 2.0 0.06 0.34 0.00 83 1006.7
20260507042546 58 202 0.0 1.0 0.05 0.33 0.00 82 1006.4
20260507042042 58 178 1.0 2.0 0.05 0.31 0.00 81 1006.4
20260507041540 58 168 1.0 5.0 0.04 0.30 0.00 80 1006.7
20260507041034 59 151 1.0 2.0 0.03 0.29 0.00 77 1007.1
20260507040518 60 133 0.0 2.0 0.01 0.27 0.00 74 1007.1
20260507040002 60 131 1.0 5.0 0.01 0.27 0.00 74 1006.4
20260507035457 60 138 4.0 5.0 0.01 0.27 0.00 74 1006.7
20260507034954 60 177 1.0 2.0 0.01 0.27 0.00 74 1006.4
20260507034453 60 180 0.0 2.0 0.01 0.27 0.00 73 1006.0
20260507033947 61 180 1.0 4.0 0.01 0.27 0.00 73 1005.7
20260507033436 61 135 0.0 4.0 0.01 0.27 0.00 74 1006.0
20260507032936 61 225 0.0 5.0 0.01 0.27 0.00 75 1006.0
20260507032434 61 140 1.0 4.0 0.01 0.27 0.00 75 1006.0
20260507031932 61 135 0.0 4.0 0.00 0.26 0.00 75 1006.0
20260507031420 61 177 1.0 4.0 0.00 0.26 0.00 74 1005.7
20260507030916 61 180 0.0 1.0 0.00 0.26 0.00 74 1006.0
20260507030414 62 135 1.0 5.0 0.00 0.26 0.00 74 1006.4
20260507025911 62 135 0.0 2.0 0.00 0.26 0.00 74 1006.4
20260507025357 62 180 0.0 1.0 0.00 0.26 0.00 73 1006.0
20260507024849 62 180 0.0 1.0 0.00 0.26 0.00 73 1005.7
20260507024344 62 156 0.0 1.0 0.00 0.26 0.00 72 1005.4
20260507023825 62 132 1.0 5.0 0.00 0.26 0.00 74 1005.0
20260507023323 62 161 3.0 4.0 0.00 0.26 0.00 71 1005.0
20260507022819 62 151 3.0 4.0 0.00 0.26 0.00 73 1005.4
20260507022315 63 138 1.0 2.0 0.00 0.26 0.00 73 1005.7
20260507021758 63 135 1.0 1.0 0.00 0.26 0.00 74 1005.4
20260507021238 63 180 2.0 4.0 0.00 0.26 0.00 77 1005.4
20260507020720 63 134 4.0 5.0 0.00 0.26 0.00 77 1005.4
20260507020206 63 180 0.0 2.0 0.00 0.26 0.00 78 1005.0
20260507015705 64 180 0.0 1.0 0.00 0.26 0.00 79 1005.0
20260507015200 64 135 0.0 0.0 0.00 0.26 0.00 79 1005.4
20260507014654 64 135 0.0 2.0 0.00 0.26 0.00 79 1005.0
20260507014140 64 135 1.0 2.0 0.00 0.26 0.00 79 1005.0
20260507013638 64 180 0.0 2.0 0.00 0.26 0.00 78 1005.0
20260507013138 64 180 2.0 4.0 0.00 0.26 0.00 79 1005.0
20260507012622 65 151 2.0 2.0 0.00 0.26 0.00 79 1004.7
20260507012104 65 143 1.0 2.0 0.01 0.26 0.00 79 1005.0
20260507011601 65 180 0.0 1.0 0.01 0.26 0.00 81 1005.4
20260507011056 65 135 0.0 1.0 0.02 0.26 0.00 81 1005.4
20260507010553 65 180 0.0 2.0 0.05 0.26 0.00 82 1005.4
20260507010048 65 135 1.0 2.0 0.05 0.26 0.00 82 1005.4
20260507005542 66 158 2.0 4.0 0.06 0.26 0.00 81 1005.4
20260507005037 66 135 1.0 4.0 0.08 0.26 0.00 81 1005.4
20260507004528 66 163 2.0 4.0 0.08 0.26 0.00 81 1005.0
20260507004023 66 135 0.0 1.0 0.08 0.26 0.00 83 1005.0
20260507003521 66 135 0.0 0.0 0.16 0.26 0.00 83 1005.0
20260507003008 66 135 2.0 2.0 0.18 0.26 0.00 83 1004.7
20260507002504 67 180 1.0 2.0 0.19 0.26 0.00 83 1005.0
20260507002001 67 135 0.0 1.0 0.19 0.25 0.00 83 1005.0
20260507001448 67 135 0.0 0.0 0.18 0.24 0.00 82 1004.7
20260507000939 67 135 0.0 0.0 0.17 0.22 0.00 81 1004.7
20260507000435 67 135 0.0 0.0 0.16 0.20 0.00 80 1004.7
20260506235933 67 135 0.0 0.0 0.16 0.20 0.00 80 1004.4
20260506235419 67 135 0.0 0.0 0.15 0.19 0.00 79 1004.4
20260506234915 67 135 0.0 1.0 0.13 0.17 0.00 79 1004.7
20260506234408 68 225 0.0 2.0 0.13 0.17 0.00 78 1004.4
20260506233852 69 180 1.0 1.0 0.11 0.14 0.00 75 1004.7
20260506233347 69 270 0.0 2.0 0.05 0.08 0.00 74 1004.4
20260506232841 70 270 0.0 1.0 0.03 0.06 0.00 73 1004.4
20260506232324 70 270 0.0 0.0 0.03 0.06 0.00 68 1004.0
20260506231823 70 270 0.0 0.0 0.02 0.05 0.00 67 1004.0
20260506231304 70 270 0.0 0.0 0.01 0.04 0.00 66 1004.0
20260506230804 71 315 0.0 1.0 0.03 0.04 0.00 67 1004.0
20260506230258 71 315 0.0 1.0 0.03 0.04 0.00 65 1003.7
20260506225748 71 332 2.0 2.0 0.03 0.04 0.00 64 1003.7
20260506225243 71 270 0.0 1.0 0.03 0.04 0.00 64 1003.7
20260506224741 71 313 1.0 2.0 0.03 0.04 0.00 64 1003.7
20260506224235 71 279 1.0 2.0 0.02 0.03 0.00 64 1003.7
20260506223731 71 328 0.0 7.0 0.02 0.03 0.00 63 1003.7
20260506223226 72 26 1.0 5.0 0.02 0.03 0.00 63 1003.7
20260506222724 72 315 0.0 2.0 0.03 0.03 0.00 63 1003.3
20260506222208 72 315 1.0 2.0 0.03 0.03 0.00 63 1003.3
20260506221652 72 319 2.0 4.0 0.03 0.03 0.00 63 1003.7
20260506221148 72 308 5.0 7.0 0.03 0.03 0.00 62 1003.3
20260506220632 72 330 1.0 5.0 0.01 0.01 0.00 62 1003.3
20260506220125 72 312 2.0 5.0 0.01 0.01 0.00 62 1003.3
20260506215622 72 291 1.0 4.0 0.01 0.01 0.00 62 100.2
20260506215116 72 345 2.0 2.0 0.01 0.01 0.00 63 1003.7
20260506214614 72 96 0.0 8.0 0.01 0.01 0.00 62 1003.7
20260506214109 72 214 0.0 8.0 0.01 0.01 0.00 63 1003.7
20260506213605 73 315 2.0 7.0 0.01 0.01 0.00 63 1003.7
20260506213102 73 320 3.0 4.0 0.01 0.01 0.00 62 1003.7
20260506212601 73 340 3.0 7.0 0.00 0.00 0.00 62 1003.7
20260506212058 73 342 3.0 4.0 0.00 0.00 0.00 62 1003.3
20260506211556 73 321 2.0 8.0 0.00 0.00 0.00 62 1003.3
20260506211053 73 351 3.0 7.0 0.00 0.27 0.00 61 1003.3
20260506210548 73 341 0.0 2.0 0.00 0.27 0.00 62 1003.3
20260506210039 73 318 4.0 10.0 0.00 0.27 0.00 61 1003.3
20260506205539 73 322 3.0 5.0 0.00 0.27 0.00 61 1003.3
20260506205036 73 301 2.0 8.0 0.00 0.27 0.00 61 1003.3
20260506204523 74 315 1.0 7.0 0.00 0.27 0.00 61 1003.3
20260506204015 74 326 3.0 7.0 0.00 0.27 0.00 61 1003.0
20260506203503 74 9 4.0 5.0 0.00 0.27 0.00 61 1003.0
20260506202957 74 336 3.0 7.0 0.00 0.27 0.00 60 1003.0
20260506202452 73 338 4.0 8.0 0.00 0.27 0.00 61 1003.0
20260506201948 73 321 3.0 5.0 0.00 0.27 0.00 61 1003.0
20260506201437 73 315 4.0 5.0 0.00 0.27 0.00 61 1003.3
20260506200925 73 343 4.0 8.0 0.00 0.27 0.00 61 1003.3
20260506200412 73 303 1.0 5.0 0.00 0.27 0.00 62 1003.0
20260506195855 72 327 3.0 8.0 0.00 0.27 0.00 62 1003.3
20260506195349 72 329 4.0 7.0 0.00 0.27 0.00 62 1003.3
20260506194838 72 354 4.0 7.0 0.00 0.27 0.00 62 1003.3
20260506194326 72 327 4.0 10.0 0.00 0.27 0.00 61 1003.3
20260506193822 73 137 1.0 7.0 0.00 0.27 0.00 62 1003.3
20260506193310 72 329 3.0 8.0 0.00 0.27 0.00 62 1003.3
20260506192806 73 324 5.0 5.0 0.00 0.27 0.00 62 1003.3
20260506192305 73 169 2.0 5.0 0.00 0.27 0.00 62 1003.3
20260506191755 73 88 1.0 10.0 0.00 0.27 0.00 62 1003.3
20260506191247 72 236 1.0 10.0 0.00 0.27 0.00 63 1003.3
20260506190735 72 225 0.0 4.0 0.00 0.27 0.00 64 1003.7
20260506190231 72 13 2.0 7.0 0.00 0.27 0.00 64 1003.7
20260506185730 72 331 4.0 11.0 0.00 0.27 0.00 63 1003.7
20260506185217 71 303 2.0 8.0 0.00 0.27 0.00 64 1003.7
20260506184716 71 326 4.0 10.0 0.00 0.27 0.00 64 1003.7
20260506184209 71 326 5.0 7.0 0.00 0.27 0.00 64 1003.7
20260506183658 70 331 7.0 11.0 0.00 0.27 0.00 65 1004.0
20260506183147 70 267 1.0 2.0 0.00 0.27 0.00 65 1004.0
20260506182643 70 334 2.0 2.0 0.00 0.27 0.00 66 1004.0
20260506182140 70 327 3.0 5.0 0.00 0.27 0.00 66 1004.0
20260506181636 70 323 2.0 7.0 0.00 0.27 0.00 66 1004.0